TimeCDT,TemperatureF,Dew PointF,Humidity,Sea Level PressureIn,VisibilityMPH,Wind Direction,Wind SpeedMPH,Gust SpeedMPH,PrecipitationIn,Events,Conditions,WindDirDegrees,DateUTC
12:53 AM,43.0,37.9,82,29.99,10.0,Calm,Calm,-,N/A,,Clear,0,2012-11-01 05:53:00
1:53 AM,41.0,35.1,79,29.99,10.0,Calm,Calm,-,N/A,,Clear,0,2012-11-01 06:53:00
2:53 AM,37.9,36.0,93,29.99,10.0,Calm,Calm,-,N/A,,Clear,0,2012-11-01 07:53:00
3:53 AM,37.9,36.0,93,29.99,10.0,Calm,Calm,-,N/A,,Clear,0,2012-11-01 08:53:00
4:53 AM,37.0,35.1,93,30.01,10.0,Calm,Calm,-,N/A,,Clear,0,2012-11-01 09:53:00
5:53 AM,36.0,34.0,93,30.01,10.0,Calm,Calm,-,N/A,,Clear,0,2012-11-01 10:53:00
6:53 AM,35.6,33.8,93,30.03,10.0,Calm,Calm,-,N/A,,Clear,0,2012-11-01 11:53:00
7:53 AM,37.9,36.0,93,30.06,10.0,Calm,Calm,-,N/A,,Clear,0,2012-11-01 12:53:00
8:53 AM,46.0,37.9,73,30.07,10.0,Calm,Calm,-,N/A,,Clear,0,2012-11-01 13:53:00
9:53 AM,53.1,28.9,40,30.07,10.0,Calm,Calm,-,N/A,,Clear,0,2012-11-01 14:53:00
10:53 AM,57.2,24.8,29,30.09,10.0,NW,5.8,-,N/A,,Clear,310,2012-11-01 15:53:00
11:53 AM,60.1,21.9,23,30.07,10.0,NNW,8.1,-,N/A,,Clear,330,2012-11-01 16:53:00
12:53 PM,62.1,21.9,21,30.04,10.0,WNW,6.9,-,N/A,,Clear,300,2012-11-01 17:53:00
1:53 PM,64.0,24.1,22,30.02,10.0,NNW,6.9,-,N/A,,Clear,330,2012-11-01 18:53:00
2:53 PM,66.0,27.0,23,30.01,10.0,NW,9.2,-,N/A,,Clear,320,2012-11-01 19:53:00
3:53 PM,66.9,30.0,25,30.00,10.0,NNW,8.1,-,N/A,,Clear,330,2012-11-01 20:53:00
4:53 PM,64.9,30.0,27,30.01,10.0,West,8.1,-,N/A,,Clear,260,2012-11-01 21:53:00
5:53 PM,62.1,32.0,32,30.01,10.0,WNW,3.5,-,N/A,,Clear,300,2012-11-01 22:53:00
6:53 PM,54.0,37.0,53,30.01,10.0,Calm,Calm,-,N/A,,Clear,0,2012-11-01 23:53:00
7:53 PM,51.1,39.0,63,30.03,10.0,Calm,Calm,-,N/A,,Clear,0,2012-11-02 00:53:00
8:53 PM,48.0,39.0,71,30.02,10.0,NNE,3.5,-,N/A,,Clear,20,2012-11-02 01:53:00
10:53 PM,46.0,39.9,79,30.02,10.0,Calm,Calm,-,N/A,,Clear,0,2012-11-02 03:53:00